Regional Weather Roundup
Issued by NWS

Home | Current Version | Previous Version | Graphics & Text | Print | Product List | Glossary On
Versions: 1 2 3 4 5 6 7 8 9 10 11 12 13 14 15 16 17 18 19 20 21 22 23 24 25 26 27 28 29 30 31 32 33 34 35 36 37 38 39 40 41 42 43 44 45 46 47 48 49 50
000
ASUS43 KDMX 040307
RWRIA

WEATHER ROUNDUP FOR IOWA
NATIONAL WEATHER SERVICE DES MOINES IA
900 PM CST TUE MAR 03 2015

NOTE: "FAIR" INDICATES FEW OR NO CLOUDS BELOW 12,000 FEET WITH NO
SIGNIFICANT WEATHER AND/OR OBSTRUCTIONS TO VISIBILITY.

* - THESE STATIONS ARE NOT NWS STATIONS...THUS NOT UNDER NWS
QUALITY CONTROL.  THEY ALSO DO NOT REPORT WEATHER SUCH
AS PRECIPITATION OR FOG.

IAZ001>003-012>014-020>022-031>034-043>046-040400-
   NORTHWEST IOWA

CITY           SKY/WX    TMP DP  RH WIND       PRES   REMARKS
CARROLL *      CLEAR     14   5  67 NW25G33   30.04R WCI  -5
CHEROKEE *     CLEAR     12   5  73 NW12      30.07R WCI  -2
DENISON *      CLEAR     14   5  67 N9        30.05R WCI   2
LE MARS *      CLEAR     12   5  73 N3        30.09S
ORANGE CITY *  CLEAR     12   5  73 N7        30.06S WCI   2
SHELDON *      CLEAR      9   1  72 NW9       30.05R WCI  -5
SIOUX CITY     CLEAR     17   5  59 N17       30.09R WCI   1
SPENCER        CLEAR     11   2  67 NW12      30.05R WCI  -3
STORM LAKE *   CLEAR     12   3  67 N22G29    30.03S WCI  -7
$$

IAZ055>058-069>071-079>083-090>094-040400-
   SOUTHWEST IOWA

CITY           SKY/WX    TMP DP  RH WIND       PRES   REMARKS
ATLANTIC *     MOCLDY    18   9  68 N13       30.06R WCI   4
AUDUBON *      MOCLDY    16   9  73 NW12      30.05R WCI   3
CLARINDA *     CLEAR     25  14  63 N18G24    30.07R WCI  11
COUNCIL BLFS * PTCLDY    19   7  58 N15       30.07R WCI   5
CRESTON *      MOCLDY    21  12  68 N20G29    30.02R WCI   6
HARLAN  *      CLEAR     16   9  73 N15       30.11R WCI   1
LAMONI         CLOUDY    27  19  72 N15       29.99R WCI  15
RED OAK *      MOCLDY    21  10  63 N16G22    30.08R WCI   7
SHENANDOAH *   MOCLDY    23  10  58 N16       30.08R WCI  10
$$

IAZ047>049-059>061-072>074-084-040400-
   CENTRAL IOWA

CITY           SKY/WX    TMP DP  RH WIND       PRES   REMARKS
AMES           PTCLDY    19  11  70 N17G26    30.02R WCI   4
ANKENY *       MOCLDY    23  16  74 NW16G25   30.03R WCI  10
CHARITON *     CLOUDY    27  18  69 NW17G24   29.99R WCI  14
DES MOINES     MOCLDY    24  14  65 NW18G26   30.03R WCI  10
GRINNELL*      MOCLDY    19  12  73 NW16      29.99R WCI   5
KNOXVILLE *    CLOUDY    25  16  68 N17       29.98R WCI  11
MARSHALLTOWN   PTCLDY    17   8  67 NW22G32   29.99R WCI   0
PELLA *        MOCLDY    24  20  83 NW16      30.01R WCI  11
PERRY *          N/A     19  12  73 NW20      30.04R WCI   4
$$

IAZ004>006-015-016-023>025-035-036-040400-
   NORTH CENTRAL IOWA

CITY           SKY/WX    TMP DP  RH WIND       PRES   REMARKS
ALGONA *       PTCLDY    12 N/A N/A NW18G25   30.03S WCI  -5
CLARION *      CLEAR     14   7  73 NW22G29   30.01R WCI  -4
ESTHERVILLE    CLEAR     10   3  73 NW16      30.03R WCI  -7
FORT DODGE *   CLEAR     14   3  62 NW7G18    30.03R WCI   4
MASON CITY     PTCLDY    11   3  70 NW25      29.99S WCI -10
FOREST CITY *    N/A     12   3  67 NW17G23   29.99S WCI  -5
IOWA FALLS *     N/A     14   9  79 NW22      29.99S WCI  -4
$$

IAZ007>011-017>019-026>030-037>042-050>054-066-040400-
   NORTHEAST IOWA

CITY           SKY/WX    TMP DP  RH WIND       PRES   REMARKS
CEDAR RAPIDS   MOCLDY    21  14  74 NW24      29.94R WCI   4
CHARLES CITY * MOCLDY    14   7  73 NW21G29   29.96R WCI  -4
CLINTON *      CLOUDY    28  21  74 NW22      29.93R WCI  15
DECORAH *      CLOUDY    14   7  73 NW14G24   29.91R WCI  -1
DUBUQUE          N/A    N/A N/A N/A MISG      29.87R
MONTICELLO *   MOCLDY    21  16  79 NW20G28   29.91R WCI   6
OELWEIN *      PTCLDY    16  10  79 NW21      29.93R WCI  -2
WATERLOO       PTCLDY    16   9  74 NW15G26   29.97R WCI   1
$$

IAZ064-065-067-068-078-040400-
   EAST CENTRAL IOWA

CITY           SKY/WX    TMP DP  RH WIND       PRES   REMARKS
DAVENPORT      CLOUDY    27  20  75 NW24      29.92R WCI  12
IOWA CITY      MOCLDY    25  17  72 NW12G24   29.97R WCI  14
MT. PLEASANT * CLOUDY    29  22  76 NW13G20   29.96R WCI  18
MUSCATINE *    CLOUDY    28  21  74 NW17G25   29.97R WCI  16
QUAD CITIES    CLOUDY    30  23  75 W15       29.92R WCI  19
$$

IAZ062-063-075>077-085>089-095>099-040400-
   SOUTHEAST IOWA

CITY           SKY/WX    TMP DP  RH WIND       PRES   REMARKS
BURLINGTON     CLOUDY    32  25  75 NW17G23   29.94R WCI  21
FAIRFIELD *    CLOUDY    27  18  69 NW20      29.98R WCI  13
FORT MADISON * CLOUDY    30  25  80 NW22G28   29.95R WCI  17
KEOKUK *       CLOUDY    34  28  80 NW14G20   29.94R WCI  24
OSKALOOSA *      N/A     25  18  74 NW20      29.99R WCI  11
CENTERVILLE *  CLOUDY    28  25  86 NW16      29.98S WCI  17
OTTUMWA        CLOUDY    26  19  74 NW14      29.99R WCI  14
WASHINGTON *   MOCLDY    27  21  80 NW21G28   29.97R WCI  13
$$

ABBREVIATIONS USED IN REMARKS
   TC - TEMPERATURES IN CELSIUS
  WCI - WIND CHILL INDEX
   HX - HEAT INDEX
  VSB - VISIBILITY
$$




USA.gov is the U.S. government's official web portal to all federal, state and local government web resources and services.